sat.trackr.live / text

‹ back to catalog

2021-091B

NORAD 49316 · 2021-091B

PAYLOAD ACTIVE UNKNOWN

§ Identity

Operator
Country
PRC
Launch date
2021-10-14
Launch site
TAISC
Launch vehicle
Mass (kg)
RCS (m²)

External: N2YO · Heavens-Above · Gunter

§ Orbital elements

Epoch: 2026-09-20T22:09:03.483936Z

Period
94.80 min
Inclination
97.4482°
Eccentricity
0.0014809
Mean motion
15.18954838 rev/d
Perigee alt
498.8 km
Apogee alt
519.2 km
Semi-major
6,887.1 km
B*
1.1365e-4
RAAN
90.0834°
Arg perigee
68.7008°
Mean anomaly
291.5806°
Rev number
27,351

§ Raw data

2021-091B1 49316U 21091B   26263.92295699  .00002312  00000+0  11365-3 0  99922 49316  97.4482  90.0834 0014809  68.7008 291.5806 15.18954838273515

JSON: /api/v1/satellites/49316 · /tle

For live sub-satellite position, see the globe view (requires WebGL).

§ Visibility from observer

Set your observer location to see the next 7 days of passes ≥ 10°. The values pass through the URL so the page stays shareable.

No JS? Fill the form by hand. The geolocation button needs JavaScript.

§ Radio — SatNOGS DB

ModeDescriptionDownlinkUplink
FM S-band telemetry 2.283 GHz
FM S-band telemetry 2.212 GHz

2 transmitters · refreshed weekly from db.satnogs.org